TimeCST,TemperatureF,Dew PointF,Humidity,Sea Level PressureIn,VisibilityMPH,Wind Direction,Wind SpeedMPH,Gust SpeedMPH,PrecipitationIn,Events,Conditions,WindDirDegrees,DateUTC
12:53 AM,28.9,23.0,78,30.33,8.0,North,5.8,-,N/A,,Overcast,10,2013-01-07 06:53:00
1:53 AM,28.0,23.0,81,30.34,8.0,NNE,6.9,-,N/A,,Overcast,20,2013-01-07 07:53:00
2:39 AM,26.6,21.2,80,30.31,8.0,NNE,4.6,-,N/A,,Partly Cloudy,30,2013-01-07 08:39:00
2:53 AM,26.1,21.9,84,30.35,8.0,ENE,3.5,-,N/A,,Partly Cloudy,60,2013-01-07 08:53:00
3:53 AM,25.0,21.0,85,30.37,8.0,Calm,Calm,-,N/A,,Clear,0,2013-01-07 09:53:00
4:53 AM,25.0,21.0,85,30.37,8.0,East,4.6,-,N/A,,Clear,80,2013-01-07 10:53:00
5:53 AM,24.1,21.0,88,30.38,7.0,ENE,4.6,-,N/A,,Clear,70,2013-01-07 11:53:00
6:53 AM,25.0,21.9,88,30.39,5.0,East,3.5,-,N/A,,Clear,90,2013-01-07 12:53:00
7:53 AM,27.0,23.0,85,30.41,5.0,Calm,Calm,-,N/A,,Clear,0,2013-01-07 13:53:00
8:53 AM,30.0,24.1,79,30.41,7.0,East,5.8,-,N/A,,Clear,80,2013-01-07 14:53:00
9:53 AM,35.1,25.0,67,30.41,10.0,Variable,3.5,-,N/A,,Clear,0,2013-01-07 15:53:00
10:53 AM,41.0,27.0,57,30.39,10.0,Variable,3.5,-,N/A,,Clear,0,2013-01-07 16:53:00
11:53 AM,45.0,25.0,46,30.35,10.0,Variable,3.5,-,N/A,,Clear,0,2013-01-07 17:53:00
12:53 PM,48.0,24.1,39,30.31,10.0,Calm,Calm,-,N/A,,Clear,0,2013-01-07 18:53:00
1:53 PM,50.0,23.0,35,30.31,10.0,Variable,3.5,-,N/A,,Clear,0,2013-01-07 19:53:00
2:53 PM,51.1,21.9,32,30.31,10.0,Variable,3.5,-,N/A,,Clear,0,2013-01-07 20:53:00
3:53 PM,48.9,21.9,35,30.32,10.0,ESE,3.5,-,N/A,,Clear,110,2013-01-07 21:53:00
4:53 PM,45.0,23.0,42,30.33,10.0,South,3.5,-,N/A,,Clear,170,2013-01-07 22:53:00
5:53 PM,39.9,24.1,53,30.34,10.0,SSE,3.5,-,N/A,,Clear,160,2013-01-07 23:53:00
6:53 PM,37.0,23.0,57,30.34,10.0,Calm,Calm,-,N/A,,Clear,0,2013-01-08 00:53:00
7:53 PM,37.9,23.0,55,30.32,10.0,Calm,Calm,-,N/A,,Clear,0,2013-01-08 01:53:00
8:53 PM,34.0,24.1,67,30.33,10.0,South,3.5,-,N/A,,Clear,170,2013-01-08 02:53:00
9:53 PM,35.1,25.0,67,30.30,10.0,Calm,Calm,-,N/A,,Clear,0,2013-01-08 03:53:00
10:53 PM,36.0,26.1,67,30.29,10.0,SSE,5.8,-,N/A,,Clear,160,2013-01-08 04:53:00
11:53 PM,36.0,26.1,67,30.28,10.0,South,3.5,-,N/A,,Clear,180,2013-01-08 05:53:00